Location: Moscow
(38.3171°N, 79.0889°W)
Time: 02:26:14
(UTC+00:00)

NOSS 3-4 (A) - Pass Details

Date: 07 November 2025
Orbit: 771 x 1440 km, 63.4° (Epoch: 11 November)

Event Time Altitude Azimuth Distance (km) Brightness Sun altitude
Rises 23:20:48 0° 330° (NNW) 3,769 6.8 -14.2°
Reaches altitude 10° 23:23:18 10° 334° (NNW) 2,905 6.2 -14.6°
Maximum altitude 23:30:14 60° 54° (NE) 1,365 4.0 -16.0°
Drops below altitude 10° 23:38:16 10° 133° (SE) 3,365 5.9 -17.6°
Enters shadow 23:40:38 - 136° (SE) 4,156 6.4 -18.0°
